星链-1904 (STARLINK-1904 )

导读 | 星芒AI

STARLINK-1904 是 SpaceX Starlink 项目中的一颗低轨通信卫星,属于第 4 批 Starlink 卫星任务(Transporter 4)的一部分,于 2022 年 11 月发射。该卫星运行在约 550 公里的轨道高度,旨在为全球用户提供高速互联网服务。Starlink 卫星采用先进相控阵天线和激光链路技术,具备高带宽和低延迟特性。STARLINK-1904 的部署有助于扩大 Starlink 在全球范围的覆盖,特别是在偏远和网络基础设施薄弱地区。

基本信息
目录编号:
48389
目录名称:
STARLINK-1904
国际标识:
2021-038AN
轨道中心:
EARTH
卫星名称:
星链-1904
卫星全名:
星链-1904 (STARLINK-1904 )
卫星状态:
已陨落 最后检测时间 2024-08-29
发射日期:
2021-05-04 UTC
国别 :
美国 (US)
星等 :
--
轨道信息
数据来源 国际轨道数据
星历时间: 2024-08-29T22:20:32+0800
轨道信息已过期429天
半长轴: 6555.788km
偏心率: 0.0003139
轨道倾角: 53.039°
近地点辐角 301.547°
升交点赤经 305.895°
平近点角 175.925°
近地点: 175.595km
远地点: 179.711km
周期: 88.043分钟
每日圈数: 16.355562
详细信息
固有亮度:
5
最大亮度:
2.5
卫星平台:
Starlink V1.0
覆盖范围:
全球
运营商:
太空探索技术公司
运营商所在国:
美国
制造商(研发单位):
太空探索技术公司
制造商所在国:
美国
使用方式:
暂无
卫星简介
星链(Starlink)计划是由太空探索技术公司(SpaceX)提出的一个巨型低轨卫星互联网星座项目,计划在2019年至2024年间在太空搭建由约1.2万颗卫星组成的“星链”网络,其中1584颗将部署在地球上空550千米处的近地轨道,并从2020年开始工作。该卫星仍在工作。